Wind_Speed
20 24 24 22 21 21 20 24 25 24 21 19 18 18 17 16 15 14 14 12 11 12 12 13 14 13 11 12 13 15 15 16 16 16 16 18 19 21 24 20 15 16 17
23 23 24 22 21 20 19 22 23 21 18 14 13 14 14 13 12 12 11 10 9 10 11 12 12 11 11 12 13 14 14 14 15 15 15 15 17 17 19 19 13 15 14
22 21 24 23 21 20 19 19 20 18 16 13 11 11 11 10 8 7 7 7 7 6 8 8 10 10 10 11 11 12 13 14 15 18 20 11 14 15 16 15 14 14 14
21 20 19 22 20 20 20 17 18 17 14 13 11 10 9 7 6 5 4 5 4 3 4 5 6 7 7 8 9 10 12 14 18 18 12 8 10 13 13 13 13 12 11
20 19 20 22 21 20 20 18 17 14 13 11 10 9 8 6 5 3 2 2 1 1 1 3 4 4 4 6 7 10 12 14 17 14 9 8 9 12 13 13 12 11 12
21 20 22 21 21 20 19 18 15 11 11 9 8 7 6 5 3 2 2 2 2 2 2 2 3 5 5 5 6 8 9 11 13 8 7 10 10 9 10 10 9 8 7
25 19 21 20 20 20 18 17 14 11 10 8 6 6 5 4 3 3 3 2 2 3 4 4 4 5 5 6 6 6 4 9 11 6 8 8 10 8 8 9 6 6 5
20 17 22 19 16 17 16 15 13 9 8 8 8 6 6 6 5 5 4 3 2 3 2 3 3 5 6 6 7 6 6 8 7 6 7 9 5 8 7 6 5 5 4
20 21 21 15 17 15 14 13 12 10 8 8 8 7 8 8 7 6 5 3 2 2 2 3 4 4 5 7 7 7 6 8 10 7 8 7 11 7 6 5 4 4 4
17 15 17 13 15 14 13 11 11 10 10 11 10 9 10 12 10 7 4 4 3 3 2 3 4 4 5 6 7 7 8 9 9 8 9 14 8 9 6 6 5 5 3
15 18 18 16 14 14 16 13 11 17 13 12 12 12 14 10 16 14 6 3 3 4 3 3 4 4 4 3 3 4 5 8 8 9 13 14 13 9 6 5 5 6 5
16 18 18 17 17 16 18 15 11 15 15 20 20 15 14 13 9 10 8 0 5 4 4 4 4 4 5 7 2 5 6 8 6 10 11 13 13 9 7 7 7 7 7
15 18 16 15 18 19 19 15 16 12 17 10 21 22 14 11 6 2 5 3 6 5 4 5 2 4 6 13 11 11 7 5 6 9 12 14 17 13 9 7 7 8 8
15 16 14 15 17 15 18 13 9 9 3 12 13 17 12 6 4 4 6 4 6 5 3 4 6 6 1 7 3 7 3 8 5 7 6 8 10 9 7 7 8 8 9
16 16 15 19 17 15 18 11 8 6 6 3 7 8 5 2 3 5 10 6 1 5 5 4 9 5 6 4 5 6 5 8 4 7 8 6 8 8 9 9 9 10 11
13 12 16 13 12 17 14 13 10 3 6 8 8 10 6 6 6 10 10 9 3 3 6 4 4 6 4 6 7 8 8 8 8 9 7 10 10 11 10 12 12 11 11
13 14 14 13 11 10 13 12 9 7 6 6 6 7 5 9 11 14 10 8 8 6 5 6 6 5 6 9 7 6 8 8 8 10 11 9 14 12 11 11 11 11 10
12 13 12 12 12 11 10 10 11 7 9 8 9 10 11 12 11 9 7 6 10 11 7 5 5 6 7 7 8 6 7 8 10 9 9 10 10 14 11 11 9 11 11
13 12 12 11 11 11 11 9 9 12 9 9 10 7 11 10 10 13 8 3 2 5 8 7 8 12 6 6 8 8 8 9 9 10 11 11 10 10 11 13 10 11 10
13 12 12 11 11 12 10 11 10 10 10 8 7 9 11 10 11 13 8 5 2 5 10 6 10 8 7 6 10 12 11 11 10 10 11 12 11 11 10 11 12 8 4
14 15 15 15 15 14 12 10 10 11 10 8 9 8 11 13 13 12 7 8 5 6 7 7 7 7 8 8 12 11 15 14 12 11 10 11 13 12 11 12 11 8 12
16 16 16 15 15 15 13 12 10 9 10 8 11 12 11 11 13 13 11 9 8 8 8 8 7 7 8 9 9 13 13 10 17 9 12 14 14 13 12 13 12 11 10
16 18 17 16 15 14 14 12 10 10 10 10 10 10 8 9 12 14 13 12 12 12 10 7 7 10 9 11 4 7 7 8 15 5 10 16 16 14 12 12 13 13 13
16 16 17 17 16 15 15 13 13 10 8 8 8 6 8 12 10 11 11 14 12 10 12 7 9 9 10 10 9 11 15 9 7 1 8 11 15 14 13 12 13 14 13
15 16 16 16 16 16 16 16 13 11 11 7 7 9 9 11 11 12 12 15 15 12 11 14 12 11 11 9 16 17 13 7 11 10 10 11 12 11 11 11 11 11 12
14 15 15 17 16 16 16 15 17 12 10 11 7 8 8 9 10 8 11 14 16 16 15 13 15 14 15 14 15 15 11 7 14 10 11 6 7 11 8 9 9 9 9
Wind_Direction
147 152 146 146 147 144 144 148 151 150 140 128 124 117 118 115 110 109 105 101 95 92 94 92 95 100 93 98 102 105 107 109 103 103 103 103 102 103 97 86 86 99 98
151 152 152 150 150 151 149 152 158 158 156 147 140 132 131 121 117 111 108 104 98 101 102 99 101 100 97 103 105 107 107 111 104 95 94 106 108 116 114 121 131 102 101
148 157 156 153 153 154 152 150 155 161 162 159 157 149 147 139 131 121 117 113 106 104 104 103 107 107 104 104 113 115 112 114 106 92 86 96 114 115 112 114 103 98 96
147 146 159 164 157 156 154 149 155 154 156 160 159 154 152 156 150 143 133 124 118 107 109 113 116 114 108 109 113 119 116 115 107 96 93 105 114 117 113 108 104 98 92
145 149 162 155 158 159 161 155 152 154 154 152 147 154 159 166 166 163 167 197 193 188 201 175 157 140 120 114 120 120 113 118 112 92 130 132 124 121 116 112 104 106 100
150 151 158 155 158 161 166 167 171 177 178 172 165 167 172 183 206 227 220 253 268 227 230 211 188 167 155 157 148 137 117 117 102 118 137 151 161 131 126 115 123 119 107
154 155 158 158 164 167 169 175 183 189 187 190 199 203 208 210 215 235 241 253 254 227 219 222 206 187 191 182 179 174 148 130 110 165 154 146 205 159 140 135 128 122 118
158 157 167 158 165 172 177 180 185 190 195 200 216 222 228 223 228 251 244 244 234 231 220 223 221 207 192 202 194 199 200 161 144 172 165 177 204 172 159 148 143 145 139
147 166 164 161 171 173 180 182 184 196 208 216 224 227 235 240 235 235 239 224 213 233 250 239 225 219 199 200 203 200 210 188 161 184 178 218 236 211 182 181 178 164 168
169 164 152 169 167 172 180 187 193 206 214 220 225 228 235 242 236 227 214 210 234 234 243 236 222 217 207 197 196 202 198 181 172 190 215 208 233 211 203 213 209 215 225
159 161 163 165 164 169 172 184 196 218 226 228 228 240 250 263 257 233 185 215 263 245 235 227 217 206 192 199 222 214 198 195 204 229 196 222 234 199 204 220 231 229 241
169 165 164 176 176 198 187 215 231 249 238 235 235 241 254 272 249 336 140 145 248 248 227 230 219 202 169 204 241 303 206 248 217 209 226 228 231 224 247 248 243 240 237
168 170 179 176 184 203 207 229 244 278 258 251 227 235 245 269 296 205 313 281 271 255 216 235 257 202 221 241 195 219 204 266 245 158 210 243 238 236 251 252 248 247 244
169 176 177 185 182 216 208 232 249 271 235 240 229 214 234 283 5 288 281 271 266 228 220 235 195 240 121 246 240 267 228 221 238 236 222 267 224 224 233 251 259 262 260
172 185 173 199 188 205 204 217 235 257 229 226 190 200 221 188 247 294 266 239 273 232 183 218 223 192 232 222 238 246 233 247 243 227 246 259 248 242 261 264 268 261 260
173 175 177 191 207 200 208 207 216 317 197 211 187 220 194 261 239 231 253 251 233 276 216 247 210 216 200 220 230 237 239 225 234 223 226 276 281 274 273 274 271 261 255
174 173 178 185 189 197 199 207 221 223 269 246 212 234 217 224 236 240 252 249 224 254 254 221 237 230 226 224 248 238 238 232 225 233 232 239 270 281 291 286 278 260 253
174 175 185 186 193 188 213 234 226 224 221 254 212 221 229 224 242 248 244 264 266 229 248 217 224 221 216 226 214 230 232 229 230 239 242 240 246 266 276 292 279 267 253
178 180 188 192 194 190 202 226 216 240 263 205 242 203 222 231 232 255 232 234 288 193 210 207 196 219 231 253 253 208 229 244 236 249 249 248 246 249 270 258 291 279 256
184 186 188 196 199 202 204 212 226 225 241 249 226 211 224 223 229 244 244 246 181 191 189 208 230 221 215 234 246 240 229 238 237 232 236 241 240 239 234 265 278 285 266
195 191 192 193 200 198 201 221 220 233 227 229 252 223 223 219 224 226 229 258 234 198 200 198 224 244 221 234 254 247 232 225 214 219 233 233 234 227 233 226 236 248 270
202 199 199 200 203 203 208 208 226 236 236 228 227 226 227 235 226 225 222 233 239 232 228 231 227 231 220 243 252 273 258 261 219 216 224 227 223 221 226 226 229 225 227
199 201 202 201 207 214 206 215 225 220 225 226 234 239 258 258 243 219 227 225 231 239 236 243 233 232 248 257 319 278 318 42 312 201 232 221 212 215 217 223 226 227 233
199 203 203 204 207 218 220 216 224 242 240 259 263 262 240 261 251 258 221 228 235 224 224 223 248 234 248 268 276 256 266 264 280 263 237 208 198 202 212 220 230 232 229
197 201 202 205 208 210 228 216 228 236 252 238 241 253 264 250 253 238 236 222 225 235 249 220 214 231 239 256 249 253 251 240 271 276 315 223 216 204 204 209 220 228 226
190 196 201 204 210 220 223 235 230 233 238 246 226 245 259 260 257 278 236 235 228 226 214 238 244 223 235 230 246 267 276 279 266 273 293 309 175 189 194 193 200 208 213
Height
1542 1540 1542 1545 1548 1551 1553 1556 1559 1561 1562 1564 1566 1568 1569 1570 1571 1572 1574 1575 1576 1578 1579 1579 1579 1580 1580 1580 1579 1580 1581 1581 1582 1582 1583 1584 1585 1585 1586 1588 1590 1588 1588
1541 1542 1544 1547 1550 1553 1555 1558 1561 1563 1565 1567 1569 1571 1572 1573 1574 1575 1577 1578 1579 1580 1581 1581 1581 1582 1582 1582 1582 1582 1583 1584 1584 1585 1586 1586 1586 1587 1588 1589 1590 1589 1590
1542 1544 1546 1549 1552 1555 1558 1561 1563 1565 1567 1570 1572 1574 1575 1576 1577 1578 1579 1580 1581 1582 1582 1583 1583 1583 1584 1584 1584 1585 1585 1586 1587 1589 1589 1591 1589 1590 1590 1591 1591 1592 1593
1545 1546 1548 1550 1553 1557 1559 1563 1565 1567 1570 1572 1573 1575 1576 1578 1579 1580 1581 1582 1583 1583 1584 1585 1585 1585 1585 1586 1586 1587 1587 1588 1590 1590 1592 1595 1593 1592 1592 1593 1594 1594 1595
1547 1550 1548 1552 1555 1558 1561 1565 1567 1570 1572 1573 1575 1576 1578 1579 1580 1581 1582 1583 1583 1583 1584 1585 1585 1586 1586 1587 1587 1588 1589 1590 1591 1591 1596 1597 1596 1594 1594 1595 1596 1597 1597
1548 1551 1551 1554 1558 1560 1563 1566 1569 1571 1573 1575 1577 1578 1579 1580 1581 1582 1582 1583 1583 1583 1584 1584 1585 1586 1587 1587 1587 1589 1590 1591 1592 1596 1597 1598 1597 1595 1596 1596 1597 1598 1599
1547 1551 1553 1556 1559 1562 1564 1568 1571 1573 1575 1577 1579 1579 1580 1581 1582 1582 1582 1582 1583 1583 1583 1584 1585 1585 1586 1586 1587 1589 1590 1592 1592 1597 1598 1599 1596 1596 1597 1598 1598 1599 1600
1547 1553 1553 1557 1561 1564 1566 1569 1572 1575 1576 1577 1579 1580 1580 1580 1581 1582 1583 1583 1582 1583 1583 1584 1584 1585 1586 1587 1588 1589 1591 1592 1595 1597 1598 1599 1597 1597 1597 1598 1599 1599 1600
1550 1551 1555 1560 1561 1564 1567 1570 1573 1574 1576 1577 1577 1579 1579 1578 1578 1579 1581 1581 1582 1583 1583 1583 1583 1585 1585 1586 1587 1588 1589 1591 1593 1596 1598 1596 1596 1597 1598 1598 1599 1599 1600
1551 1554 1557 1561 1565 1567 1568 1570 1572 1573 1575 1576 1576 1577 1575 1573 1574 1574 1576 1579 1582 1582 1583 1583 1583 1584 1584 1585 1587 1588 1589 1591 1592 1594 1595 1595 1595 1597 1598 1598 1599 1599 1600
1552 1556 1560 1562 1564 1566 1566 1568 1571 1570 1574 1574 1575 1574 1572 1577 1579 1579 1572 1576 1580 1583 1583 1583 1583 1584 1584 1585 1586 1587 1588 1589 1592 1594 1595 1594 1596 1596 1597 1598 1598 1599 1600
1553 1557 1559 1562 1565 1563 1566 1567 1570 1569 1570 1571 1573 1572 1572 1574 1563 1563 1568 1576 1580 1582 1583 1583 1583 1584 1584 1586 1585 1586 1586 1587 1588 1591 1592 1593 1596 1596 1597 1597 1597 1598 1599
1553 1556 1559 1562 1563 1564 1565 1567 1568 1569 1566 1569 1570 1571 1572 1574 1576 1577 1574 1576 1580 1582 1583 1583 1583 1584 1586 1582 1586 1584 1587 1588 1586 1590 1591 1593 1594 1595 1595 1596 1596 1597 1597
1553 1556 1559 1562 1565 1564 1566 1566 1568 1568 1566 1567 1570 1571 1572 1572 1572 1575 1577 1579 1578 1582 1583 1585 1583 1586 1583 1586 1586 1587 1587 1590 1589 1588 1591 1591 1592 1593 1594 1594 1595 1595 1596
1553 1555 1558 1560 1562 1564 1565 1566 1568 1568 1568 1569 1570 1572 1573 1574 1575 1576 1578 1580 1581 1582 1581 1585 1584 1586 1586 1587 1588 1588 1588 1587 1588 1590 1590 1591 1592 1592 1593 1593 1592 1593 1593
1553 1555 1556 1559 1561 1563 1564 1566 1567 1566 1567 1569 1570 1572 1573 1575 1579 1576 1578 1578 1580 1580 1583 1583 1584 1584 1586 1587 1587 1587 1587 1588 1589 1590 1591 1589 1590 1590 1590 1590 1590 1590 1591
1553 1555 1559 1560 1560 1562 1563 1564 1565 1567 1568 1569 1571 1572 1573 1576 1576 1575 1577 1577 1579 1581 1582 1582 1583 1584 1584 1584 1585 1586 1586 1587 1588 1588 1588 1589 1587 1588 1588 1588 1588 1588 1589
1553 1555 1558 1560 1561 1562 1561 1563 1564 1566 1570 1569 1571 1572 1573 1574 1574 1575 1575 1576 1577 1579 1581 1582 1582 1583 1583 1583 1583 1584 1584 1585 1585 1586 1586 1586 1586 1585 1585 1585 1585 1586 1586
1551 1554 1557 1559 1561 1562 1564 1564 1564 1565 1566 1568 1569 1570 1572 1573 1574 1573 1573 1574 1574 1577 1579 1580 1581 1580 1582 1581 1580 1581 1581 1581 1582 1583 1584 1582 1585 1585 1585 1583 1584 1584 1584
1550 1552 1555 1557 1560 1561 1563 1564 1565 1566 1566 1566 1567 1569 1571 1572 1573 1572 1572 1573 1574 1575 1577 1579 1577 1578 1580 1580 1577 1574 1576 1575 1577 1579 1580 1581 1581 1582 1584 1582 1582 1582 1582
1548 1550 1552 1554 1556 1558 1560 1562 1564 1565 1566 1567 1566 1567 1569 1569 1570 1570 1572 1572 1572 1573 1574 1576 1577 1577 1576 1576 1573 1569 1569 1570 1569 1572 1575 1576 1577 1578 1580 1582 1582 1583 1581
1545 1548 1550 1552 1554 1555 1558 1561 1562 1563 1562 1565 1566 1565 1565 1565 1566 1568 1569 1571 1571 1572 1573 1574 1574 1575 1573 1571 1568 1564 1563 1558 1567 1565 1568 1570 1572 1575 1576 1578 1579 1580 1582
1542 1545 1547 1549 1552 1554 1557 1559 1560 1561 1562 1562 1559 1562 1562 1563 1564 1565 1568 1568 1569 1569 1571 1572 1573 1573 1570 1566 1562 1565 1564 1566 1563 1559 1561 1563 1566 1568 1571 1574 1576 1577 1577
1539 1542 1545 1547 1549 1551 1553 1557 1558 1558 1560 1560 1559 1560 1562 1562 1562 1562 1562 1567 1566 1568 1568 1570 1572 1571 1570 1569 1568 1564 1561 1563 1562 1556 1561 1563 1562 1564 1566 1569 1572 1573 1574
1537 1540 1543 1545 1547 1549 1550 1553 1556 1558 1558 1559 1560 1560 1560 1560 1560 1560 1561 1562 1564 1565 1566 1567 1568 1568 1569 1569 1564 1561 1563 1554 1557 1561 1566 1560 1568 1563 1563 1564 1568 1571 1572
1535 1539 1542 1543 1544 1546 1548 1550 1551 1554 1556 1557 1558 1559 1559 1559 1558 1557 1559 1557 1559 1561 1563 1565 1565 1566 1565 1566 1562 1564 1561 1554 1554 1561 1562 1552 1561 1562 1562 1561 1564 1567 1570